Location: Hylvaty SDH
(49.9612°N, 16.4057°E)
Time: 19:47:00
(UTC+02:00)

Transit 4A - Pass Details

Date: 18 August 2020
Orbit: 862 x 982 km, 66.8° (Epoch: 28 September)

Event Time Altitude Azimuth Distance (km) Brightness Sun altitude
Rises 10:28:21 0° 256° (WSW) 3,533 10.7 42.0°
Reaches altitude 10° 10:31:09 10° 267° (W) 2,613 10.0 42.3°
Maximum altitude 10:36:28 30° 327° (NNW) 1,610 9.1 43.0°
Drops below altitude 10° 10:41:57 10° 28° (NNE) 2,694 10.3 43.7°
Sets 10:44:53 0° 39° (NE) 3,659 11.0 44.0°
